Eglinton, United Kingdom

2:17 PM GMT on February 13, 2016 (GMT +0000)
Eglinton

Weather History for EGAE - December, 2012

Change the Weather History Date:

Thursday, December 27, 2012

  Actual Average (EGAC) Record (EGAC)
Temperature  
Mean Temperature 42 °F -  
Max Temperature 44 °F 42 °F - (-1)
Min Temperature 41 °F 35 °F - (-1)
Degree Days  
Heating Degree Days 22    
Moisture  
Dew Point 40 °F    
Average Humidity 90    
Maximum Humidity 93    
Minimum Humidity 87    
Precipitation  
Precipitation 0.00 in - - ()
Sea Level Pressure  
Sea Level Pressure 29.70 in    
Wind  
Wind Speed 3 mph ()    
Max Wind Speed 12 mph    
Max Gust Speed -    
Visibility 6.2 miles    
Events Rain    
Averages and records for this station are not official NWS values.
T = Trace of Precipitation, MM = Missing Value Source: Averaged Metar Reports

Daily Weather History Graph

Daily Weather History Graph

Search for Another Location

Airport or City:

Trip Planner

Search our weather history database for the weather conditions in past years. The results will help you decide how hot, cold, wet, or windy it might be!

Date:

Astronomy

Dec. 27, 2012 Rise Set
Actual Time 8:53 AM GMT 4:05 PM GMT
Civil Twilight 8:08 AM GMT 4:51 PM GMT
Nautical Twilight 7:20 AM GMT 5:39 PM GMT
Astronomical Twilight 6:36 AM GMT 6:23 PM GMT
Moon 3:43 PM GMT (12/27) 7:49 AM GMT (12/27)
Length of Visible Light 8h 42m
Length of Day
7h 11m
Waxing Gibbous, 99% of the Moon is Illuminated
Dec 27
Waxing Gibbous
Dec 28
Full
Jan 5
Last Quarter
Jan 11
New
Jan 18
First Quarter

Hourly Weather History & Observations

Time (GMT) Temp. Windchill Dew Point Humidity Pressure Visibility Wind Dir Wind Speed Gust Speed Precip Events Conditions
7:50 AM 41.0 °F - 39.2 °F 93% 29.50 in 6.2 mi East 2.3 mph - N/A Rain Light Rain
8:20 AM 41.0 °F - 39.2 °F 93% 29.53 in 6.2 mi Calm Calm - N/A Rain Light Rain
8:50 AM 41.0 °F - 39.2 °F 93% 29.56 in 6.2 mi Calm Calm - N/A Rain Light Rain
9:20 AM 41.0 °F - 39.2 °F 93% 29.59 in 6.2 mi South 2.3 mph - N/A   Mostly Cloudy
9:50 AM 41.0 °F 39.0 °F 39.2 °F 93% 29.62 in 6.2 mi ESE 3.5 mph - N/A   Mostly Cloudy
10:20 AM 41.0 °F - 39.2 °F 93% 29.62 in 6.2 mi Calm Calm - N/A   Mostly Cloudy
10:50 AM 41.0 °F 39.0 °F 39.2 °F 93% 29.65 in 6.2 mi Variable 3.5 mph - N/A   Mostly Cloudy
11:20 AM 41.0 °F 39.0 °F 39.2 °F 93% 29.68 in 6.2 mi Variable 3.5 mph - N/A   Mostly Cloudy
11:50 AM 42.8 °F 41.1 °F 41.0 °F 93% 29.71 in 6.2 mi Variable 3.5 mph - N/A   Scattered Clouds
12:20 PM 42.8 °F 39.3 °F 41.0 °F 93% 29.71 in 6.2 mi WSW 5.8 mph - N/A   Scattered Clouds
12:50 PM 42.8 °F 39.3 °F 41.0 °F 93% 29.74 in 6.2 mi SSW 5.8 mph - N/A   Scattered Clouds
1:20 PM 44.6 °F 40.2 °F 41.0 °F 87% 29.74 in 6.2 mi SW 8.1 mph - N/A   Scattered Clouds
1:50 PM 44.6 °F 41.4 °F 41.0 °F 87% 29.74 in 6.2 mi SSW 5.8 mph - N/A   Scattered Clouds
2:20 PM 44.6 °F 41.4 °F 41.0 °F 87% 29.74 in 6.2 mi SW 5.8 mph - N/A   Scattered Clouds
2:50 PM 44.6 °F 41.4 °F 41.0 °F 87% 29.77 in 6.2 mi SW 5.8 mph - N/A   Scattered Clouds
3:20 PM 42.8 °F 38.6 °F 39.2 °F 87% 29.77 in 6.2 mi SW 6.9 mph - N/A Rain Rain Showers
3:50 PM 42.8 °F 40.1 °F 39.2 °F 87% 29.77 in 6.2 mi West 4.6 mph - N/A   Mostly Cloudy
4:20 PM 42.8 °F 40.1 °F 39.2 °F 87% 29.80 in 6.2 mi WSW 4.6 mph - N/A Rain Light Rain Showers
4:50 PM 42.8 °F 37.0 °F 39.2 °F 87% 29.80 in 6.2 mi SSW 10.4 mph - N/A   Partly Cloudy
5:20 PM 41.0 °F 34.7 °F 39.2 °F 93% 29.80 in 6.2 mi SSW 10.4 mph - N/A   Partly Cloudy
5:50 PM 42.8 °F 36.6 °F 39.2 °F 87% 29.80 in 6.2 mi SSW 11.5 mph - N/A   Partly Cloudy